This is the latest recevied weather packets stored in our database for station/object KC5DAQ-22. If no packets are shown the sender has not sent any weather packets the latest 1 day(s).
| Time | Temp. | Humidity | Pressure | Rain* | Wind** | Luminosity | Snow |
|---|---|---|---|---|---|---|---|
| 1777970282 | 22.22° C | 89% | 1007.2 hPa | 0 mm | 1.34 m/s, 32° | 0 W/m² | - |
| 1777970223 | 22.22° C | 89% | 1007.2 hPa | 0 mm | 1.34 m/s, 44° | 0 W/m² | - |
| 1777970163 | 22.22° C | 89% | 1007.2 hPa | 0 mm | 1.34 m/s, 37° | 0 W/m² | - |
| 1777970104 | 22.22° C | 89% | 1007.3 hPa | 0 mm | 1.34 m/s, 47° | 0 W/m² | - |
| 1777970043 | 22.22° C | 89% | 1007.3 hPa | 0 mm | 1.34 m/s, 49° | 0 W/m² | - |
| 1777969984 | 22.22° C | 89% | 1007.3 hPa | 0 mm | 1.34 m/s, 42° | 0 W/m² | - |
| 1777969922 | 22.22° C | 88% | 1007.3 hPa | 0 mm | 1.34 m/s, 41° | 0 W/m² | - |
| 1777969862 | 22.22° C | 88% | 1007.3 hPa | 0 mm | 1.34 m/s, 34° | 0 W/m² | - |
| 1777969804 | 22.22° C | 88% | 1007.3 hPa | 0 mm | 0.89 m/s, 38° | 0 W/m² | - |
| 1777969743 | 22.22° C | 88% | 1007.3 hPa | 0 mm | 0.89 m/s, 41° | 0 W/m² | - |
| 1777969682 | 22.22° C | 88% | 1007.3 hPa | 0 mm | 1.34 m/s, 37° | 0 W/m² | - |
| 1777969623 | 22.22° C | 88% | 1007.2 hPa | 0 mm | 1.34 m/s, 45° | 0 W/m² | - |
| 1777969563 | 22.22° C | 88% | 1007.4 hPa | 0 mm | 2.24 m/s, 48° | 0 W/m² | - |
| 1777969504 | 22.22° C | 88% | 1007.4 hPa | 0 mm | 2.24 m/s, 13° | 0 W/m² | - |
| 1777969444 | 22.22° C | 88% | 1007.4 hPa | 0 mm | 1.79 m/s, 32° | 0 W/m² | - |
| 1777969383 | 22.22° C | 88% | 1007.4 hPa | 0 mm | 1.79 m/s, 41° | 0 W/m² | - |
| 1777969322 | 22.22° C | 88% | 1007.4 hPa | 0 mm | 1.79 m/s, 37° | 0 W/m² | - |
| 1777969262 | 22.22° C | 88% | 1007.3 hPa | 0 mm | 1.79 m/s, 38° | 0 W/m² | - |
| 1777969202 | 22.22° C | 88% | 1007.4 hPa | 0 mm | 1.79 m/s, 45° | 0 W/m² | - |
| 1777969143 | 22.22° C | 88% | 1007.4 hPa | 0 mm | 2.24 m/s, 45° | 0 W/m² | - |
| 1777969082 | 22.22° C | 88% | 1007.4 hPa | 0 mm | 1.79 m/s, 44° | 0 W/m² | - |
| 1777969023 | 22.22° C | 88% | 1007.4 hPa | 0 mm | 1.34 m/s, 39° | 0 W/m² | - |
| 1777968964 | 22.22° C | 88% | 1007.4 hPa | 0 mm | 1.34 m/s, 23° | 0 W/m² | - |
| 1777968902 | 22.22° C | 88% | 1007.4 hPa | 0 mm | 1.79 m/s, 38° | 0 W/m² | - |
| 1777968841 | 22.22° C | 88% | 1007.4 hPa | 0 mm | 1.34 m/s, 38° | 0 W/m² | - |
* Rain latest hour (hover to see other rain measurements)
** Current wind speed in m/s (hover to see current wind gust speed)